FW0051 Weather Reports


Display with metric or nautical units.
time (UTC)temp
F
wind
direction
speed
MPH
gust
MPH
rain 1hr
in
rain 24hr
in
rain mn
in
humidity
%
barometer
mb
20260902103014 58 147 8.0 14.0 0.00 0.00 0.00 90 1027.3
20260902101515 58 160 7.0 14.0 0.00 0.00 0.00 91 1027.4
20260902100014 57 166 10.0 17.0 0.00 0.00 0.00 91 1027.4
20260902094515 58 163 5.0 9.0 0.00 0.00 0.00 91 1027.4
20260902093015 57 167 8.0 13.0 0.00 0.00 0.00 91 1027.3
20260902091513 57 185 6.0 11.0 0.00 0.00 0.00 91 1027.2
20260902090016 58 164 3.0 9.0 0.00 0.00 0.00 93 1027.3
20260902083013 57 73 2.0 7.0 0.00 0.00 0.00 93 1027.1
20260902081514 57 40 2.0 7.0 0.00 0.00 0.00 92 1027.0
20260902080019 57 168 1.0 3.0 0.00 0.00 0.00 92 1026.9
20260902074518 57 158 1.0 3.0 0.00 0.00 0.00 94 1026.9
20260902073019 55 228 1.0 2.0 0.00 0.00 0.00 96 1026.7
20260902070018 54 229 3.0 4.0 0.00 0.00 0.00 96 1026.6
20260902064519 54 227 2.0 3.0 0.00 0.00 0.00 96 1026.6
20260902063018 54 225 2.0 3.0 0.00 0.00 0.00 96 1026.5
20260902060019 54 243 4.0 5.0 0.00 0.00 0.00 95 1026.6
20260902054518 55 245 3.0 5.0 0.00 0.00 0.00 91 1026.3
20260902053018 55 268 2.0 3.0 0.00 0.00 0.00 90 1026.1
20260902050017 54 1 2.0 3.0 0.00 0.00 0.00 91 1026.1
20260902043017 54 1 1.0 3.0 0.00 0.00 0.00 92 1026.0
20260902041518 54 1 5.0 6.0 0.00 0.00 0.00 92 1025.9
20260902040017 54 339 3.0 6.0 0.00 0.00 0.00 93 1025.9
20260902034517 54 251 1.0 3.0 0.00 0.00 0.00 95 1026.2
20260902033016 54 250 2.0 3.0 0.00 0.00 0.00 96 1026.3
20260902031516 54 250 2.0 3.0 0.00 0.00 0.00 97 1026.3
20260902030016 55 249 3.0 4.0 0.00 0.00 0.00 97 1026.3
20260902024516 55 223 2.0 4.0 0.00 0.00 0.00 97 1026.3
20260902023016 55 214 3.0 4.0 0.00 0.00 0.00 97 1026.4
20260902021516 55 205 3.0 5.0 0.00 0.00 0.00 97 1026.4
20260902020016 55 0 0.0 0.0 0.00 0.00 0.00 97 1026.3
20260902014515 55 194 1.0 3.0 0.00 0.00 0.00 97 1026.3
20260902013015 55 196 1.0 4.0 0.00 0.00 0.00 98 1026.3
20260902010015 55 154 2.0 3.0 0.00 0.00 0.00 97 1026.4
20260902004514 55 168 2.0 5.0 0.00 0.00 0.00 97 1026.3
20260902003015 55 171 1.0 4.0 0.00 0.00 0.00 96 1026.4
20260902001515 55 209 4.0 5.0 0.00 0.00 0.00 96 1026.4
20260902000015 56 209 5.0 6.0 0.00 0.00 0.00 96 1026.4
20260901230014 55 198 5.0 8.0 0.00 0.00 0.00 97 1026.6
20260901223014 56 195 5.0 7.0 0.00 0.00 0.00 97 1026.6
20260901221514 56 198 5.0 8.0 0.00 0.00 0.00 97 1026.7
20260901213013 56 203 7.0 10.0 0.00 0.00 0.00 96 1026.7
20260901211513 56 201 6.0 11.0 0.00 0.00 0.00 96 1026.7
20260901204513 56 184 5.0 7.0 0.00 0.00 0.00 96 1026.7
20260901203013 56 179 5.0 6.0 0.00 0.00 0.00 95 1026.7
20260901201513 56 173 6.0 10.0 0.00 0.00 0.00 95 1026.7
20260901200019 56 161 6.0 10.0 0.00 0.00 0.00 95 1026.7
20260901194518 56 142 3.0 4.0 0.00 0.00 0.00 95 1026.8
20260901193019 56 160 7.0 8.0 0.00 0.00 0.00 95 1026.6
20260901191519 56 205 7.0 10.0 0.00 0.00 0.00 94 1026.4
20260901190019 56 165 4.0 7.0 0.00 0.00 0.00 94 1026.3
20260901184518 56 157 4.0 7.0 0.00 0.00 0.00 94 1026.1
20260901183018 56 164 3.0 5.0 0.00 0.00 0.00 94 1026.2
20260901181518 56 160 1.0 4.0 0.00 0.00 0.00 94 1026.2
20260901180018 56 159 5.0 6.0 0.00 0.00 0.00 94 1026.0
20260901174518 56 128 6.0 9.0 0.00 0.00 0.00 95 1025.8
20260901173018 56 137 5.0 8.0 0.00 0.00 0.00 94 1025.8
20260901171518 57 130 7.0 10.0 0.00 0.00 0.00 94 1025.7
20260901170018 57 138 7.0 10.0 0.00 0.00 0.00 93 1025.7
20260901164518 57 118 7.0 11.0 0.00 0.00 0.00 92 1025.7
20260901163017 57 127 11.0 14.0 0.00 0.00 0.00 92 1025.8
20260901161517 58 131 9.0 13.0 0.00 0.00 0.00 91 1025.6
20260901160017 58 153 9.0 14.0 0.00 0.00 0.00 90 1026.1
20260901154516 59 165 15.0 24.0 0.00 0.00 0.00 89 1026.2
20260901153017 58 141 12.0 15.0 0.00 0.00 0.00 91 1026.0
20260901151517 58 123 13.0 18.0 0.00 0.00 0.00 92 1026.0
20260901150017 58 128 14.0 21.0 0.00 0.00 0.00 92 1026.2
20260901143016 58 115 14.0 18.0 0.00 0.00 0.00 91 1026.0
20260901141516 59 124 13.0 19.0 0.00 0.00 0.00 89 1026.3
20260901140016 59 133 15.0 23.0 0.00 0.00 0.00 88 1026.1
20260901133015 60 120 15.0 20.0 0.00 0.00 0.00 86 1026.5
20260901131516 59 121 10.0 15.0 0.00 0.00 0.00 89 1026.6
20260901130016 59 117 11.0 14.0 0.00 0.00 0.00 86 1026.4
20260901124515 59 128 8.0 14.0 0.00 0.00 0.00 85 1026.5
20260901123015 59 127 9.0 13.0 0.00 0.00 0.00 84 1026.6
20260901121514 60 117 11.0 17.0 0.00 0.00 0.00 83 1026.4
20260901120015 60 126 12.0 19.0 0.00 0.00 0.00 83 1026.4
20260901114514 60 141 11.0 15.0 0.00 0.00 0.00 83 1026.5
20260901113015 60 134 7.0 14.0 0.00 0.00 0.00 82 1026.4
20260901111514 61 96 8.0 16.0 0.00 0.00 0.00 81 1026.4
20260901110015 60 123 9.0 14.0 0.00 0.00 0.00 85 1026.6
20260901104513 59 99 9.0 16.0 0.00 0.00 0.00 85 1026.4